Showing default

IRIDIUM 165, 43572

Orbit data source: Space-Track

IRIDIUM 165, 43572 is a payload satellite owned by Iridium (US) in LEO that was launched on Wed, 25 Jul 2018 UTC via an FALCON 9 launch vehicle from the Air Force Western Test Range (AFWTR). Payload-class satellites include a variety of spacecraft equipped with specific instruments for various scientific and technological missions. These include communications satellites like Starlink; space stations such as the ISS; scientific satellites like the Hubble; Earth observation satellites from companies like Planet Labs, Umbra, and HawkEye 360; GPS; miniature CubeSats for education and research; and military/defense satellites.

Loading next visibility...
Identifier
43572, 2018-061D
Orbit
LEO
Country
Flag of USUS
Related business
Manufacturer
NGIS SSG Gilbert
Mission
Operational Commercial Communications
Bus & Motor
ELITEBUS, Unknown motor
Mass
860 kg wet, 700 kg dry
Launch date (UTC)
2018-07-25 (7 years ago)
Launch vehicle
FALCON 9
Launch site
Air Force Western Test Range (AFWTR)
Object type
Payload
Rocket body
Debris
Shape & HBR
Trap Box + 2 Pan, 4.8 m
Radar Cross Section
10.154 m², Large (>1 m²)

Expand to show TLE details & history
Last TLE update: 10 hours ago

TLE from 10 hours ago
0 IRIDIUM 165
1 43572U 18061D   25351.33239060 -.00000011  00000-0 -10858-4 0  9999
2 43572  86.3980 132.8392 0001957  91.6349 268.5071 14.34216580387325
Epoch: 2025-12-17T07:58Z
TLE epoch observation values (Epoch: 2025-12-17T07:58:38.547Z)
Latitude
-0.00004°
Longitude
-73.02518°
Altitude
780.759 km
Speed
7.463 km/s
True Right ascension
08h 51m 21s
True Declination
0° 00' 00"
Sunlit
Object was in full shadow at epoch
Visualization orbit readout
Latitude
Unknown
Longitude
Unknown
Altitude
Unknown
Speed
Unknown
Apparent Right ascension
Unknown
Apparent Declination
Unknown
Sunlit
N/A
Visualization observer readout
Local Sidereal Time
17:11:50
Azimuth
Unknown
Elevation
Unknown
Doppler factor
Unknown
Orbital elements
Apogee altitude
776.035 km
Perigee altitude
773.236 km
Semi-major axis
7,152.773 km
Eccentricity
0.0002
Inclination
86.398°
RAAN
132.8392°
Arg. of periapsis
91.6349°
True anomaly
268.48468°
Mean anomaly
268.5071°
Eccentric anomaly
268.49589°
Mean motion
3.58783 °/min
Orbital period
100.34 mins
BSTAR
-0.000010858
Loading maneuver chart data...
Computing Atmospheric mass density...
Loading historical data...
Loading historical data...
Loading historical data...
Loading historical data...
Loading historical data...
Loading historical data...
Loading historical data...

Documentation

Showing up to 5 results
|